Weather History for KTVL - October, 2012

Change the Weather History Date:

Wednesday, October 10, 2012

  Actual Average Record
Temperature  
Mean Temperature 47 °F 47 °F  
Max Temperature 64 °F 65 °F 81 °F (1996)
Min Temperature 30 °F 29 °F 17 °F (1985)
Degree Days  
Heating Degree Days 18 18  
Month to date heating degree days 143 166  
Since 1 July heating degree days 562 792  
Cooling Degree Days 0 0  
Month to date cooling degree days 0 0  
Year to date cooling degree days 30 31  
Moisture  
Dew Point 31 °F    
Average Humidity 53    
Maximum Humidity 85    
Minimum Humidity 20    
Precipitation  
Precipitation T in - 1.02 in (1975)
Month to date precipitation T  
Year to date precipitation 11.06  
Sea Level Pressure  
Sea Level Pressure 29.93 in    
Wind  
Wind Speed 3 mph (South)    
Max Wind Speed 15 mph    
Max Gust Speed 25 mph    
Visibility 10 miles    
Events      
T = Trace of Precipitation, MM = Missing Value Source: NWS Daily Summary

Daily Weather History Graph

Daily Weather History Graph

Search for Another Location

Airport or City:

Trip Planner

Search our weather history database for the weather conditions in past years. The results will help you decide how hot, cold, wet, or windy it might be!

Date:

Astronomy

Oct. 10, 2012 Rise Set
Actual Time 7:05 AM PDT 6:27 PM PDT
Civil Twilight 6:38 AM PDT 6:54 PM PDT
Nautical Twilight 6:07 AM PDT 7:25 PM PDT
Astronomical Twilight 5:36 AM PDT 7:56 PM PDT
Moon 1:49 AM PDT (10/10) 3:31 PM PDT (10/10)
Length of Visible Light 12h 16m
Length of Day
11h 22m
Waning Crescent, 26% of the Moon is Illuminated
Oct 10
Waning Crescent
Oct 15
New
Oct 21
First Quarter
Oct 29
Full
Nov 6
Last Quarter

Hourly Weather History & Observations

Time (PDT) Temp. Windchill Dew Point Humidity Pressure Visibility Wind Dir Wind Speed Gust Speed Precip Events Conditions
12:53 AM 43.0 °F - 34.0 °F 71% 29.92 in 10.0 mi Calm Calm - N/A   Overcast
1:53 AM 43.0 °F - 34.0 °F 71% 29.94 in 10.0 mi Calm Calm - N/A   Overcast
2:53 AM 39.0 °F - 33.1 °F 79% 29.94 in 10.0 mi Calm Calm - N/A   Partly Cloudy
3:53 AM 36.0 °F - 30.9 °F 82% 29.94 in 10.0 mi Calm Calm - N/A   Clear
4:53 AM 33.1 °F 30.0 °F 28.9 °F 85% 29.95 in 10.0 mi South 3.5 mph - N/A   Clear
5:53 AM 32.0 °F - 28.0 °F 85% 29.97 in 10.0 mi Calm Calm - N/A   Clear
6:53 AM 32.0 °F 27.5 °F 27.0 °F 82% 29.99 in 10.0 mi SW 4.6 mph - N/A   Clear
7:53 AM 30.9 °F 27.5 °F 27.0 °F 85% 30.01 in 10.0 mi South 3.5 mph - N/A   Clear
8:53 AM 41.0 °F 38.0 °F 30.0 °F 65% 29.99 in 10.0 mi South 4.6 mph - N/A   Clear
9:53 AM 52.0 °F - 33.1 °F 49% 29.96 in 10.0 mi Calm Calm - N/A   Clear
10:53 AM 57.9 °F - 32.0 °F 37% 29.93 in 10.0 mi Calm Calm - N/A   Clear
11:53 AM 60.1 °F - 30.9 °F 33% 29.91 in 10.0 mi Calm Calm - N/A   Clear
12:53 PM 63.0 °F - 25.0 °F 24% 29.88 in 10.0 mi Variable 5.8 mph - N/A   Clear
1:53 PM 62.1 °F - 21.0 °F 21% 29.86 in 10.0 mi ENE 9.2 mph 19.6 mph N/A   Clear
2:53 PM 61.0 °F - 21.0 °F 21% 29.87 in 10.0 mi NE 8.1 mph 16.1 mph N/A   Partly Cloudy
3:53 PM 61.0 °F - 21.9 °F 22% 29.86 in 10.0 mi NNE 6.9 mph - N/A   Clear
4:53 PM 55.9 °F - 34.0 °F 44% 29.88 in 10.0 mi SSW 12.7 mph - N/A   Overcast
5:53 PM 53.1 °F - 35.1 °F 50% 29.90 in 10.0 mi South 12.7 mph - N/A   Overcast
6:53 PM 51.1 °F - 36.0 °F 56% 29.92 in 10.0 mi SSW 12.7 mph - N/A   Overcast
7:53 PM 48.9 °F - 37.0 °F 64% 29.95 in 10.0 mi South 9.2 mph - N/A   Mostly Cloudy
8:53 PM 46.9 °F - 37.9 °F 71% 29.93 in 10.0 mi South 4.6 mph - 0.00 in   Overcast
9:53 PM 46.9 °F - 37.9 °F 71% 29.91 in 10.0 mi Calm Calm - 0.00 in   Overcast
10:53 PM 45.0 °F 42.6 °F 37.9 °F 76% 29.90 in 10.0 mi South 4.6 mph - N/A   Mostly Cloudy
11:53 PM 39.9 °F - 35.1 °F 83% 29.91 in 10.0 mi Calm Calm - N/A   Clear